When you browse on this site, cookies collect data to enhance your experience and personalize the content and advertising you see.
Visit our Privacy Policy to learn more. By continuing to use the site, you agree to this use of cookies and data.

Stündliche Wetter Quetame

Heute, 5 August, Mittwoch

Zeit Temperatur Niederschläge Wind Luftdruck Luftfeuchtigkeit
00:00 +19°C° 0 mm 1 m/S 640 mmHg 96%
01:00 +19°C° 0 mm 1 m/S 640 mmHg 95%
02:00 +19°C° 0 mm 1 m/S 639 mmHg 95%
03:00 +18°C° 0 mm 1 m/S 639 mmHg 94%
04:00 +18°C° 0 mm 1 m/S 638 mmHg 94%
05:00 +19°C° 0 mm 1 m/S 639 mmHg 93%
06:00 +19°C° 0 mm 1 m/S 639 mmHg 92%
07:00 +19°C° 0 mm 1 m/S 640 mmHg 91%
08:00 +20°C° 0 mm 1 m/S 640 mmHg 90%
09:00 +20°C° 0 mm 1 m/S 640 mmHg 89%
10:00 +21°C° 0 mm 1 m/S 641 mmHg 88%
11:00 +21°C° 0.2 mm 1 m/S 640 mmHg 88%
12:00 +20°C° 0.2 mm 2 m/S 640 mmHg 87%
13:00 +21°C° 0.2 mm 2 m/S 640 mmHg 86%
14:00 +21°C° 0.2 mm 1 m/S 639 mmHg 89%
15:00 +21°C° 0.2 mm 1 m/S 638 mmHg 91%
16:00 +19°C° 0.2 mm 0 m/S 637 mmHg 93%
17:00 +18°C° 0.1 mm 0 m/S 637 mmHg 93%
18:00 +18°C° 0.1 mm 0 m/S 638 mmHg 93%
19:00 +17°C° 0.1 mm 0 m/S 638 mmHg 93%
20:00 +17°C° 0 mm 0 m/S 639 mmHg 92%
21:00 +17°C° 0 mm 0 m/S 639 mmHg 91%
22:00 +17°C° 0 mm 0 m/S 639 mmHg 90%
23:00 +17°C° 0 mm 0 m/S 639 mmHg 90%

Morgen, 6 August, Donnerstag

Zeit Temperatur Niederschläge Wind Luftdruck Luftfeuchtigkeit
00:00 +17°C° 0 mm 0 m/S 639 mmHg 90%
01:00 +17°C° 0 mm 0 m/S 639 mmHg 89%
02:00 +17°C° 0 mm 0 m/S 639 mmHg 90%
03:00 +17°C° 0 mm 0 m/S 638 mmHg 90%
04:00 +17°C° 0 mm 0 m/S 638 mmHg 90%
05:00 +17°C° 0 mm 0 m/S 638 mmHg 90%
06:00 +17°C° 0 mm 0 m/S 639 mmHg 90%
07:00 +19°C° 0 mm 1 m/S 639 mmHg 89%
08:00 +20°C° 0.3 mm 1 m/S 639 mmHg 91%
09:00 +20°C° 0.3 mm 1 m/S 639 mmHg 92%
10:00 +20°C° 0.3 mm 1 m/S 640 mmHg 94%
11:00 +20°C° 0.2 mm 1 m/S 639 mmHg 94%
12:00 +20°C° 0.2 mm 1 m/S 639 mmHg 94%
13:00 +20°C° 0.2 mm 1 m/S 638 mmHg 94%
14:00 +20°C° 0.2 mm 1 m/S 638 mmHg 93%
15:00 +21°C° 0.2 mm 1 m/S 638 mmHg 92%
16:00 +21°C° 0.2 mm 1 m/S 637 mmHg 92%
17:00 +20°C° 0.2 mm 1 m/S 638 mmHg 94%
18:00 +18°C° 0.2 mm 0 m/S 638 mmHg 96%
19:00 +17°C° 0.2 mm 0 m/S 638 mmHg 98%
20:00 +17°C° 0.1 mm 0 m/S 639 mmHg 97%
21:00 +17°C° 0.1 mm 0 m/S 639 mmHg 96%
22:00 +17°C° 0.1 mm 0 m/S 640 mmHg 96%
23:00 +17°C° 0 mm 0 m/S 639 mmHg 95%

übermorgen, 7 August, Freitag

Zeit Temperatur Niederschläge Wind Luftdruck Luftfeuchtigkeit
00:00 +17°C° 0 mm 0 m/S 639 mmHg 95%
01:00 +17°C° 0 mm 0 m/S 639 mmHg 95%
02:00 +19°C° 0.1 mm 1 m/S 639 mmHg 94%
03:00 +19°C° 0.1 mm 1 m/S 639 mmHg 94%
04:00 +19°C° 0.1 mm 1 m/S 638 mmHg 94%
05:00 +19°C° 0 mm 1 m/S 639 mmHg 93%
06:00 +19°C° 0 mm 1 m/S 639 mmHg 93%
07:00 +19°C° 0 mm 1 m/S 640 mmHg 93%
08:00 +20°C° 0.1 mm 1 m/S 640 mmHg 93%
09:00 +20°C° 0.1 mm 1 m/S 640 mmHg 92%
10:00 +20°C° 0.1 mm 1 m/S 640 mmHg 91%
11:00 +21°C° 0.1 mm 1 m/S 640 mmHg 90%
12:00 +21°C° 0.1 mm 1 m/S 640 mmHg 88%
13:00 +21°C° 0.1 mm 1 m/S 639 mmHg 86%
14:00 +21°C° 0.1 mm 1 m/S 639 mmHg 88%
15:00 +20°C° 0.1 mm 1 m/S 638 mmHg 90%
16:00 +20°C° 0.1 mm 1 m/S 637 mmHg 91%
17:00 +20°C° 0 mm 1 m/S 638 mmHg 91%
18:00 +19°C° 0 mm 1 m/S 638 mmHg 90%
19:00 +19°C° 0 mm 1 m/S 639 mmHg 89%
20:00 +17°C° 0 mm 0 m/S 639 mmHg 89%
21:00 +17°C° 0 mm 0 m/S 640 mmHg 89%
22:00 +17°C° 0 mm 0 m/S 640 mmHg 89%
23:00 +17°C° 0.1 mm 0 m/S 640 mmHg 90%

8 August, Samstag

Zeit Temperatur Niederschläge Wind Luftdruck Luftfeuchtigkeit
00:00 +17°C° 0.1 mm 0 m/S 639 mmHg 92%
01:00 +16°C° 0.1 mm 0 m/S 639 mmHg 94%
02:00 +16°C° 0.2 mm 0 m/S 639 mmHg 95%
03:00 +16°C° 0.2 mm 0 m/S 639 mmHg 96%
04:00 +16°C° 0.2 mm 0 m/S 639 mmHg 97%
05:00 +19°C° 0.5 mm 1 m/S 639 mmHg 97%
06:00 +19°C° 0.5 mm 1 m/S 640 mmHg 97%
07:00 +19°C° 0.5 mm 1 m/S 640 mmHg 97%
08:00 +19°C° 0.5 mm 1 m/S 640 mmHg 97%
09:00 +19°C° 0.5 mm 1 m/S 641 mmHg 96%
10:00 +20°C° 0.5 mm 1 m/S 641 mmHg 96%
11:00 +20°C° 0.4 mm 1 m/S 640 mmHg 96%
12:00 +20°C° 0.4 mm 1 m/S 640 mmHg 96%
13:00 +20°C° 0.4 mm 1 m/S 639 mmHg 95%
14:00 +20°C° 0.1 mm 1 m/S 639 mmHg 95%
15:00 +20°C° 0.1 mm 1 m/S 638 mmHg 95%
16:00 +20°C° 0.1 mm 1 m/S 638 mmHg 95%
17:00 +19°C° 0.1 mm 1 m/S 638 mmHg 95%
18:00 +19°C° 0.1 mm 1 m/S 639 mmHg 95%
19:00 +19°C° 0.1 mm 1 m/S 639 mmHg 94%
20:00 +19°C° 0 mm 1 m/S 639 mmHg 94%
21:00 +19°C° 0 mm 1 m/S 640 mmHg 93%
22:00 +19°C° 0 mm 1 m/S 640 mmHg 93%
23:00 +19°C° 0 mm 1 m/S 640 mmHg 92%

9 August, Sonntag

Zeit Temperatur Niederschläge Wind Luftdruck Luftfeuchtigkeit
00:00 +19°C° 0 mm 1 m/S 640 mmHg 91%
01:00 +19°C° 0 mm 1 m/S 639 mmHg 91%
02:00 +19°C° 0.1 mm 1 m/S 639 mmHg 92%
03:00 +19°C° 0.1 mm 1 m/S 639 mmHg 93%
04:00 +19°C° 0.1 mm 1 m/S 639 mmHg 94%
05:00 +19°C° 0.4 mm 1 m/S 639 mmHg 94%
06:00 +19°C° 0.4 mm 1 m/S 639 mmHg 94%
07:00 +19°C° 0.4 mm 1 m/S 640 mmHg 95%
08:00 +19°C° 0.2 mm 1 m/S 640 mmHg 93%
09:00 +20°C° 0.2 mm 1 m/S 640 mmHg 92%
10:00 +21°C° 0.2 mm 1 m/S 640 mmHg 91%
11:00 +21°C° 0.2 mm 1 m/S 640 mmHg 90%
12:00 +21°C° 0.2 mm 1 m/S 639 mmHg 89%
13:00 +21°C° 0.2 mm 1 m/S 638 mmHg 88%
14:00 +21°C° 0.1 mm 1 m/S 638 mmHg 86%
15:00 +22°C° 0.1 mm 1 m/S 638 mmHg 84%
16:00 +22°C° 0.1 mm 1 m/S 637 mmHg 82%
17:00 +21°C° 0 mm 1 m/S 637 mmHg 86%
18:00 +20°C° 0 mm 1 m/S 637 mmHg 90%
19:00 +19°C° 0 mm 1 m/S 637 mmHg 94%
20:00 +19°C° 0 mm 1 m/S 638 mmHg 92%
21:00 +18°C° 0 mm 1 m/S 638 mmHg 90%
22:00 +18°C° 0 mm 1 m/S 639 mmHg 88%
23:00 +18°C° 0 mm 1 m/S 639 mmHg 88%

10 August, Montag

Zeit Temperatur Niederschläge Wind Luftdruck Luftfeuchtigkeit
00:00 +18°C° 0 mm 1 m/S 638 mmHg 88%
01:00 +18°C° 0 mm 1 m/S 638 mmHg 88%
02:00 +18°C° 0 mm 1 m/S 638 mmHg 87%
03:00 +18°C° 0 mm 1 m/S 638 mmHg 86%
04:00 +18°C° 0 mm 1 m/S 637 mmHg 85%
05:00 +19°C° 0 mm 1 m/S 638 mmHg 84%
06:00 +19°C° 0 mm 1 m/S 638 mmHg 83%
07:00 +18°C° 0 mm 0 m/S 639 mmHg 83%
08:00 +21°C° 0 mm 1 m/S 640 mmHg 77%
09:00 +23°C° 0 mm 1 m/S 640 mmHg 71%
10:00 +25°C° 0 mm 2 m/S 641 mmHg 65%
11:00 +25°C° 0.2 mm 2 m/S 640 mmHg 65%
12:00 +26°C° 0.2 mm 2 m/S 639 mmHg 65%
13:00 +26°C° 0.2 mm 3 m/S 639 mmHg 65%
14:00 +26°C° 0.2 mm 2 m/S 638 mmHg 68%
15:00 +25°C° 0.2 mm 2 m/S 637 mmHg 72%
16:00 +24°C° 0.2 mm 2 m/S 637 mmHg 75%
17:00 +23°C° 0.1 mm 1 m/S 637 mmHg 82%
18:00 +21°C° 0.1 mm 1 m/S 637 mmHg 89%
19:00 +18°C° 0.1 mm 0 m/S 637 mmHg 97%
20:00 +20°C° 0 mm 1 m/S 637 mmHg 96%
21:00 +19°C° 0 mm 1 m/S 637 mmHg 94%
22:00 +19°C° 0 mm 1 m/S 638 mmHg 93%
23:00 +19°C° 0 mm 1 m/S 638 mmHg 92%
Mehr zeigen